Weather History for KBRD - January, 2013

Change the Weather History Date:

Wednesday, January 16, 2013

  Actual Average Record
Temperature  
Mean Temperature 18 °F -  
Max Temperature 30 °F 20 °F 40 °F (1988)
Min Temperature 5 °F -4 °F -45 °F (1972)
Degree Days  
Heating Degree Days 47    
Moisture  
Dew Point 11 °F    
Average Humidity 65    
Maximum Humidity 86    
Minimum Humidity 37    
Precipitation  
Precipitation 0.00 in - - ()
Sea Level Pressure  
Sea Level Pressure 29.79 in    
Wind  
Wind Speed 14 mph (WNW)    
Max Wind Speed 18 mph    
Max Gust Speed 21 mph    
Visibility 8 miles    
Events Snow    
Averages and records for this station are not official NWS values.
T = Trace of Precipitation, MM = Missing Value Source: NWS Daily Summary

Daily Weather History Graph

Daily Weather History Graph

Search for Another Location

Airport or City:

Trip Planner

Search our weather history database for the weather conditions in past years. The results will help you decide how hot, cold, wet, or windy it might be!

Date:

Astronomy

Jan. 16, 2013 Rise Set
Actual Time 7:54 AM CST 4:58 PM CST
Civil Twilight 7:21 AM CST 5:31 PM CST
Nautical Twilight 6:44 AM CST 6:09 PM CST
Astronomical Twilight 6:08 AM CST 6:45 PM CST
Moon 10:09 AM CST (1/16) 11:14 PM CST (1/16)
Length of Visible Light 10h 10m
Length of Day
9h 03m
Waxing Crescent, 28% of the Moon is Illuminated
Jan 16
Waxing Crescent
Jan 18
First Quarter
Jan 26
Full
Feb 3
Last Quarter
Feb 10
New

Hourly Weather History & Observations

Time (CST) Temp. Windchill Dew Point Humidity Pressure Visibility Wind Dir Wind Speed Gust Speed Precip Events Conditions
12:53 AM 23.0 °F 9.6 °F 14.0 °F 68% 29.65 in 4.0 mi SSW 16.1 mph - 0.00 in Snow Light Snow
1:53 AM 24.1 °F 10.1 °F 16.0 °F 71% 29.62 in 4.0 mi SW 18.4 mph - 0.00 in Snow Light Snow
2:29 AM 24.8 °F 12.4 °F 19.4 °F 80% 29.56 in 2.0 mi SW 15.0 mph - 0.00 in Snow Light Snow
2:36 AM 24.8 °F 12.4 °F 19.4 °F 80% 29.57 in 1.8 mi SW 15.0 mph - 0.00 in Snow Light Snow
2:51 AM 24.8 °F 12.9 °F 19.4 °F 80% 29.56 in 2.0 mi SW 13.8 mph - 0.00 in Snow Light Snow
2:53 AM 24.1 °F 12.5 °F 19.0 °F 81% 29.62 in 2.0 mi SW 12.7 mph - 0.00 in Snow Light Snow
3:28 AM 24.8 °F 12.4 °F 19.4 °F 80% 29.56 in 1.8 mi SW 15.0 mph - 0.00 in Snow Light Snow
3:35 AM 24.8 °F 12.4 °F 19.4 °F 80% 29.55 in 3.0 mi SW 15.0 mph - 0.00 in Snow Light Snow
3:53 AM 26.1 °F 15.0 °F 21.0 °F 81% 29.62 in 5.0 mi WSW 12.7 mph - 0.00 in   Haze
4:07 AM 26.6 °F 15.2 °F 21.2 °F 80% 29.56 in 7.0 mi SW 13.8 mph - N/A   Overcast
4:53 AM 27.0 °F 16.7 °F 23.0 °F 85% 29.61 in 9.0 mi WSW 11.5 mph - 0.00 in   Overcast
5:45 AM 28.4 °F 19.1 °F 24.8 °F 86% 29.55 in 10.0 mi West 10.4 mph - N/A   Overcast
5:53 AM 28.9 °F 21.9 °F 25.0 °F 85% 29.61 in 10.0 mi West 6.9 mph - N/A   Overcast
6:30 AM 30.2 °F 21.3 °F 24.8 °F 80% 29.57 in 10.0 mi WNW 10.4 mph - N/A   Scattered Clouds
6:53 AM 30.0 °F 20.5 °F 21.9 °F 72% 29.64 in 10.0 mi WNW 11.5 mph 19.6 mph N/A   Scattered Clouds
7:07 AM 30.2 °F 21.3 °F 21.2 °F 69% 29.59 in 10.0 mi WNW 10.4 mph - N/A   Mostly Cloudy
7:53 AM 28.9 °F 19.2 °F 19.9 °F 69% 29.69 in 10.0 mi WNW 11.5 mph - N/A   Overcast
8:20 AM 26.6 °F 16.2 °F 19.4 °F 74% 29.64 in 10.0 mi NW 11.5 mph - N/A   Scattered Clouds
8:29 AM 26.6 °F 15.2 °F 17.6 °F 69% 29.64 in 10.0 mi NW 13.8 mph - N/A   Mostly Cloudy
8:53 AM 26.1 °F 15.6 °F 18.0 °F 71% 29.72 in 10.0 mi NW 11.5 mph - N/A   Overcast
9:53 AM 26.1 °F 14.0 °F 18.0 °F 71% 29.77 in 10.0 mi WNW 15.0 mph 19.6 mph N/A   Overcast
10:29 AM 24.8 °F 12.9 °F 15.8 °F 69% 29.74 in 10.0 mi NW 13.8 mph 20.7 mph N/A   Mostly Cloudy
10:53 AM 25.0 °F 12.6 °F 15.1 °F 66% 29.81 in 10.0 mi NNW 15.0 mph - N/A   Mostly Cloudy
11:53 AM 23.0 °F 11.7 °F 10.9 °F 60% 29.84 in 10.0 mi NW 11.5 mph - N/A   Scattered Clouds
1:53 PM 21.0 °F 6.2 °F 3.0 °F 46% 29.91 in 10.0 mi NNW 18.4 mph - N/A   Scattered Clouds
2:53 PM 21.0 °F 7.6 °F -0.0 °F 40% 29.96 in 10.0 mi NNW 15.0 mph - N/A   Partly Cloudy
3:53 PM 19.9 °F 5.7 °F -2.9 °F 37% 30.00 in 10.0 mi NNW 16.1 mph - N/A   Clear
4:53 PM 17.1 °F 4.3 °F -2.9 °F 41% 30.05 in 10.0 mi NNW 11.5 mph - N/A   Clear
5:53 PM 15.1 °F -0.1 °F -5.1 °F 41% 30.11 in 10.0 mi NNW 15.0 mph - N/A   Clear
6:53 PM 12.0 °F -2.0 °F -7.1 °F 42% 30.15 in 10.0 mi North 11.5 mph - N/A   Clear
7:53 PM 10.0 °F -6.5 °F -9.0 °F 42% 30.19 in 10.0 mi NNW 15.0 mph - N/A   Clear
8:53 PM 8.1 °F -4.3 °F -7.1 °F 50% 30.21 in 10.0 mi NW 8.1 mph - N/A   Clear
9:53 PM 6.1 °F -6.8 °F -9.0 °F 50% 30.24 in 10.0 mi NW 8.1 mph - N/A   Scattered Clouds
10:53 PM 6.1 °F -9.5 °F -13.0 °F 41% 30.27 in 10.0 mi NW 11.5 mph - N/A   Overcast
11:53 PM 5.0 °F -10.0 °F -11.0 °F 48% 30.31 in 10.0 mi NNW 10.4 mph - N/A   Overcast